Location: Unspecified
(0.0000°N, 0.0000°E)
Time: 19:22:44
(UTC+00:00)

CZ-3C DEB - Pass Details

Date: 08 March 2026
Orbit: 544 x 34777 km, 21.8° (Epoch: 16 April)

Event Time Altitude Azimuth Distance (km) Brightness Sun altitude
Rises 12:08:16 0° 246° (WSW) 8,038 ? 85.2°
Reaches altitude 10° 12:11:57 10° 242° (WSW) 8,116 ? 85.2°
Maximum altitude 15:31:45 75° 208° (SSW) 32,768 ? 39.6°
Enters shadow 21:40:48 44° 14° (NNE) 5,777 ? -52.3°
